Time,TemperatureF,DewpointF,PressureIn,WindDirection,WindDirectionDegrees,WindSpeedMPH,WindSpeedGustMPH,Humidity,HourlyPrecipIn,Conditions,Clouds,dailyrainin,SoftwareType,DateUTC
2014-03-07 00:01:00,8.4,-14.1,-100.00,North,-999,0.0,0.0,34,0.00,,,-99.99,FreeWX-Wi 1.01,2014-03-07 05:01:00,
2014-03-07 00:10:00,8.2,-14.3,-100.00,North,-999,0.0,0.0,34,0.00,,,-99.99,FreeWX-Wi 1.01,2014-03-07 05:10:00,
2014-03-07 00:21:00,8.1,-14.4,-100.00,North,-999,0.0,0.0,34,0.00,,,-99.99,FreeWX-Wi 1.01,2014-03-07 05:21:00,
2014-03-07 00:31:00,7.7,-14.8,-100.00,North,-999,0.0,0.0,34,0.00,,,-99.99,FreeWX-Wi 1.01,2014-03-07 05:31:00,
2014-03-07 00:41:00,7.3,-15.2,-100.00,North,-999,0.0,0.0,34,0.00,,,-99.99,FreeWX-Wi 1.01,2014-03-07 05:41:00,
2014-03-07 00:52:00,6.8,-15.5,-100.00,North,-999,0.0,0.0,34,0.00,,,-99.99,FreeWX-Wi 1.01,2014-03-07 05:52:00,
2014-03-07 01:02:00,6.8,-15.5,-100.00,North,-999,0.0,0.0,34,0.00,,,-99.99,FreeWX-Wi 1.01,2014-03-07 06:02:00,
2014-03-07 01:12:00,6.6,-15.7,-100.00,North,-999,0.0,0.0,34,0.00,,,-99.99,FreeWX-Wi 1.01,2014-03-07 06:12:00,
2014-03-07 01:22:00,6.4,-15.9,-100.00,North,-999,0.0,0.0,34,0.00,,,-99.99,FreeWX-Wi 1.01,2014-03-07 06:22:00,
2014-03-07 01:32:00,6.1,-16.2,-100.00,North,-999,0.0,0.0,34,0.00,,,-99.99,FreeWX-Wi 1.01,2014-03-07 06:32:00,
2014-03-07 01:42:00,5.7,-16.6,-100.00,North,-999,0.0,0.0,34,0.00,,,-99.99,FreeWX-Wi 1.01,2014-03-07 06:42:00,
2014-03-07 01:52:00,5.5,-16.6,-100.00,North,-999,0.0,0.0,34,0.00,,,-99.99,FreeWX-Wi 1.01,2014-03-07 06:52:00,
2014-03-07 02:02:00,5.5,-16.6,-100.00,North,-999,0.0,0.0,34,0.00,,,-99.99,FreeWX-Wi 1.01,2014-03-07 07:02:00,
2014-03-07 02:12:00,5.2,-17.0,-100.00,North,-999,0.0,0.0,34,0.00,,,-99.99,FreeWX-Wi 1.01,2014-03-07 07:12:00,
2014-03-07 02:22:00,5.0,-17.1,-100.00,North,-999,0.0,0.0,34,0.00,,,-99.99,FreeWX-Wi 1.01,2014-03-07 07:22:00,
2014-03-07 02:32:00,5.0,-17.1,-100.00,North,-999,0.0,0.0,34,0.00,,,-99.99,FreeWX-Wi 1.01,2014-03-07 07:32:00,
2014-03-07 02:42:00,5.2,-17.0,-100.00,North,-999,0.0,0.0,34,0.00,,,-99.99,FreeWX-Wi 1.01,2014-03-07 07:42:00,
2014-03-07 02:53:00,5.2,-17.0,-100.00,North,-999,0.0,0.0,34,0.00,,,-99.99,FreeWX-Wi 1.01,2014-03-07 07:53:00,
2014-03-07 03:03:00,5.2,-17.0,-100.00,North,-999,0.0,0.0,34,0.00,,,-99.99,FreeWX-Wi 1.01,2014-03-07 08:03:00,
2014-03-07 03:13:00,5.2,-17.0,-100.00,North,-999,0.0,0.0,34,0.00,,,-99.99,FreeWX-Wi 1.01,2014-03-07 08:13:00,
2014-03-07 03:23:00,4.8,-17.3,-100.00,North,-999,0.0,0.0,34,0.00,,,-99.99,FreeWX-Wi 1.01,2014-03-07 08:23:00,
2014-03-07 03:33:00,4.5,-17.7,-100.00,North,-999,0.0,0.0,34,0.00,,,-99.99,FreeWX-Wi 1.01,2014-03-07 08:33:00,
2014-03-07 03:43:00,4.3,-17.9,-100.00,North,-999,0.0,0.0,34,0.00,,,-99.99,FreeWX-Wi 1.01,2014-03-07 08:43:00,
2014-03-07 03:53:00,4.3,-17.9,-100.00,North,-999,0.0,0.0,34,0.00,,,-99.99,FreeWX-Wi 1.01,2014-03-07 08:53:00,
2014-03-07 04:03:00,4.1,-18.0,-100.00,North,-999,0.0,0.0,34,0.00,,,-99.99,FreeWX-Wi 1.01,2014-03-07 09:03:00,
2014-03-07 04:13:00,4.1,-18.0,-100.00,North,-999,0.0,0.0,34,0.00,,,-99.99,FreeWX-Wi 1.01,2014-03-07 09:13:00,
2014-03-07 04:23:00,3.9,-18.0,-100.00,North,-999,0.0,0.0,34,0.00,,,-99.99,FreeWX-Wi 1.01,2014-03-07 09:23:00,
2014-03-07 04:33:00,3.6,-18.4,-100.00,North,-999,0.0,0.0,34,0.00,,,-99.99,FreeWX-Wi 1.01,2014-03-07 09:33:00,
2014-03-07 04:43:00,2.8,-19.1,-100.00,North,-999,0.0,0.0,34,0.00,,,-99.99,FreeWX-Wi 1.01,2014-03-07 09:43:00,
2014-03-07 04:53:00,2.7,-19.3,-100.00,North,-999,0.0,0.0,34,0.00,,,-99.99,FreeWX-Wi 1.01,2014-03-07 09:53:00,
2014-03-07 05:02:00,2.7,-19.3,-100.00,North,-999,0.0,0.0,34,0.00,,,-99.99,FreeWX-Wi 1.01,2014-03-07 10:02:00,
2014-03-07 05:13:00,2.8,-19.1,-100.00,North,-999,0.0,0.0,34,0.00,,,-99.99,FreeWX-Wi 1.01,2014-03-07 10:13:00,
2014-03-07 05:23:00,2.7,-19.3,-100.00,North,-999,0.0,0.0,34,0.00,,,-99.99,FreeWX-Wi 1.01,2014-03-07 10:23:00,
2014-03-07 05:33:00,2.7,-19.3,-100.00,North,-999,0.0,0.0,34,0.00,,,-99.99,FreeWX-Wi 1.01,2014-03-07 10:33:00,
2014-03-07 05:43:00,2.5,-19.5,-100.00,North,-999,0.0,0.0,34,0.00,,,-99.99,FreeWX-Wi 1.01,2014-03-07 10:43:00,
2014-03-07 05:53:00,2.5,-19.5,-100.00,North,-999,0.0,0.0,34,0.00,,,-99.99,FreeWX-Wi 1.01,2014-03-07 10:53:00,
2014-03-07 06:03:00,2.1,-19.7,-100.00,North,-999,0.0,0.0,34,0.00,,,-99.99,FreeWX-Wi 1.01,2014-03-07 11:03:00,
2014-03-07 06:13:00,1.4,-20.4,-100.00,North,-999,0.0,0.0,34,0.00,,,-99.99,FreeWX-Wi 1.01,2014-03-07 11:13:00,
2014-03-07 06:22:00,0.9,-20.9,-100.00,North,-999,0.0,0.0,34,0.00,,,-99.99,FreeWX-Wi 1.01,2014-03-07 11:22:00,
2014-03-07 06:33:00,0.9,-20.9,-100.00,North,-999,0.0,0.0,34,0.00,,,-99.99,FreeWX-Wi 1.01,2014-03-07 11:33:00,
2014-03-07 06:42:00,0.9,-20.9,-100.00,North,-999,0.0,0.0,34,0.00,,,-99.99,FreeWX-Wi 1.01,2014-03-07 11:42:00,
2014-03-07 06:53:00,1.4,-20.4,-100.00,North,-999,0.0,0.0,34,0.00,,,-99.99,FreeWX-Wi 1.01,2014-03-07 11:53:00,
2014-03-07 07:03:00,1.6,-20.2,-100.00,North,-999,0.0,0.0,34,0.00,,,-99.99,FreeWX-Wi 1.01,2014-03-07 12:03:00,
2014-03-07 07:13:00,1.9,-19.8,-100.00,North,-999,0.0,0.0,34,0.00,,,-99.99,FreeWX-Wi 1.01,2014-03-07 12:13:00,
2014-03-07 07:23:00,2.7,-19.3,-100.00,North,-999,0.0,0.0,34,0.00,,,-99.99,FreeWX-Wi 1.01,2014-03-07 12:23:00,
2014-03-07 07:33:00,4.1,-18.0,-100.00,North,-999,0.0,0.0,34,0.00,,,-99.99,FreeWX-Wi 1.01,2014-03-07 12:33:00,
2014-03-07 07:43:00,5.2,-17.0,-100.00,North,-999,0.0,0.0,34,0.00,,,-99.99,FreeWX-Wi 1.01,2014-03-07 12:43:00,
2014-03-07 07:53:00,6.4,-15.9,-100.00,North,-999,0.0,0.0,34,0.00,,,-99.99,FreeWX-Wi 1.01,2014-03-07 12:53:00,
2014-03-07 08:02:00,7.9,-14.6,-100.00,North,-999,0.0,0.0,34,0.00,,,-99.99,FreeWX-Wi 1.01,2014-03-07 13:02:00,
2014-03-07 08:13:00,11.1,-10.5,-100.00,North,-999,0.0,0.0,36,0.00,,,-99.99,FreeWX-Wi 1.01,2014-03-07 13:13:00,
2014-03-07 08:24:00,14.5,-8.1,-100.00,North,-999,0.0,0.0,35,0.00,,,-99.99,FreeWX-Wi 1.01,2014-03-07 13:24:00,
2014-03-07 08:34:00,15.4,-8.5,-100.00,North,-999,0.0,0.0,33,0.00,,,-99.99,FreeWX-Wi 1.01,2014-03-07 13:34:00,
2014-03-07 08:43:00,16.2,-8.5,-100.00,North,-999,0.0,0.0,32,0.00,,,-99.99,FreeWX-Wi 1.01,2014-03-07 13:43:00,
2014-03-07 08:53:00,17.1,-7.6,-100.00,North,-999,0.0,0.0,32,0.00,,,-99.99,FreeWX-Wi 1.01,2014-03-07 13:53:00,
2014-03-07 09:04:00,18.0,-6.9,-100.00,North,-999,0.0,0.0,32,0.00,,,-99.99,FreeWX-Wi 1.01,2014-03-07 14:04:00,
2014-03-07 09:14:00,19.0,-6.0,-100.00,North,-999,0.0,0.0,32,0.00,,,-99.99,FreeWX-Wi 1.01,2014-03-07 14:14:00,
2014-03-07 09:24:00,19.8,-5.3,-100.00,North,-999,0.0,0.0,32,0.00,,,-99.99,FreeWX-Wi 1.01,2014-03-07 14:24:00,
2014-03-07 09:34:00,20.5,-4.7,-100.00,North,-999,0.0,0.0,32,0.00,,,-99.99,FreeWX-Wi 1.01,2014-03-07 14:34:00,
2014-03-07 09:44:00,21.4,-4.5,-100.00,North,-999,0.0,0.0,31,0.00,,,-99.99,FreeWX-Wi 1.01,2014-03-07 14:44:00,
2014-03-07 09:54:00,22.1,-3.8,-100.00,North,-999,0.0,0.0,31,0.00,,,-99.99,FreeWX-Wi 1.01,2014-03-07 14:54:00,
2014-03-07 10:04:00,23.4,-2.7,-100.00,North,-999,0.0,0.0,31,0.00,,,-99.99,FreeWX-Wi 1.01,2014-03-07 15:04:00,
2014-03-07 10:14:00,24.1,-2.2,-100.00,North,-999,0.0,0.0,31,0.00,,,-99.99,FreeWX-Wi 1.01,2014-03-07 15:14:00,
2014-03-07 10:23:00,24.8,-1.5,-100.00,North,-999,0.0,0.0,31,0.00,,,-99.99,FreeWX-Wi 1.01,2014-03-07 15:23:00,
2014-03-07 10:34:00,26.1,-1.1,-100.00,North,-999,0.0,0.0,30,0.00,,,-99.99,FreeWX-Wi 1.01,2014-03-07 15:34:00,
2014-03-07 10:44:00,26.8,-0.4,-100.00,North,-999,0.0,0.0,30,0.00,,,-99.99,FreeWX-Wi 1.01,2014-03-07 15:44:00,
2014-03-07 10:54:00,27.1,-0.2,-100.00,North,-999,0.0,0.0,30,0.00,,,-99.99,FreeWX-Wi 1.01,2014-03-07 15:54:00,
2014-03-07 11:04:00,27.7,0.3,-100.00,North,-999,0.0,0.0,30,0.00,,,-99.99,FreeWX-Wi 1.01,2014-03-07 16:04:00,
2014-03-07 11:14:00,28.4,1.0,-100.00,North,-999,0.0,0.0,30,0.00,,,-99.99,FreeWX-Wi 1.01,2014-03-07 16:14:00,
2014-03-07 11:24:00,28.9,1.4,-100.00,North,-999,0.0,0.0,30,0.00,,,-99.99,FreeWX-Wi 1.01,2014-03-07 16:24:00,
2014-03-07 11:34:00,29.1,1.6,-100.00,North,-999,0.0,0.0,30,0.00,,,-99.99,FreeWX-Wi 1.01,2014-03-07 16:34:00,
2014-03-07 11:44:00,29.7,2.1,-100.00,North,-999,0.0,0.0,30,0.00,,,-99.99,FreeWX-Wi 1.01,2014-03-07 16:44:00,
2014-03-07 11:53:00,30.0,2.3,-100.00,North,-999,0.0,0.0,30,0.00,,,-99.99,FreeWX-Wi 1.01,2014-03-07 16:53:00,
2014-03-07 12:04:00,30.4,2.7,-100.00,North,-999,0.0,0.0,30,0.00,,,-99.99,FreeWX-Wi 1.01,2014-03-07 17:04:00,
2014-03-07 12:13:00,30.9,3.2,-100.00,North,-999,0.0,0.0,30,0.00,,,-99.99,FreeWX-Wi 1.01,2014-03-07 17:13:00,
2014-03-07 12:23:00,30.7,3.0,-100.00,North,-999,0.0,0.0,30,0.00,,,-99.99,FreeWX-Wi 1.01,2014-03-07 17:23:00,
2014-03-07 12:34:00,30.7,3.0,-100.00,North,-999,0.0,0.0,30,0.00,,,-99.99,FreeWX-Wi 1.01,2014-03-07 17:34:00,
2014-03-07 12:44:00,30.9,3.2,-100.00,North,-999,0.0,0.0,30,0.00,,,-99.99,FreeWX-Wi 1.01,2014-03-07 17:44:00,
2014-03-07 12:54:00,31.5,3.6,-100.00,North,-999,0.0,0.0,30,0.00,,,-99.99,FreeWX-Wi 1.01,2014-03-07 17:54:00,
2014-03-07 13:03:00,31.6,3.7,-100.00,North,-999,0.0,0.0,30,0.00,,,-99.99,FreeWX-Wi 1.01,2014-03-07 18:03:00,
2014-03-07 13:13:00,31.8,3.9,-100.00,North,-999,0.0,0.0,30,0.00,,,-99.99,FreeWX-Wi 1.01,2014-03-07 18:13:00,
2014-03-07 13:23:00,31.8,3.9,-100.00,North,-999,0.0,0.0,30,0.00,,,-99.99,FreeWX-Wi 1.01,2014-03-07 18:23:00,
2014-03-07 13:33:00,32.2,3.6,-100.00,North,-999,0.0,0.0,29,0.00,,,-99.99,FreeWX-Wi 1.01,2014-03-07 18:33:00,
2014-03-07 13:43:00,32.2,3.6,-100.00,North,-999,0.0,0.0,29,0.00,,,-99.99,FreeWX-Wi 1.01,2014-03-07 18:43:00,
2014-03-07 13:53:00,32.4,3.7,-100.00,North,-999,0.0,0.0,29,0.00,,,-99.99,FreeWX-Wi 1.01,2014-03-07 18:53:00,
2014-03-07 14:03:00,32.7,4.1,-100.00,North,-999,0.0,0.0,29,0.00,,,-99.99,FreeWX-Wi 1.01,2014-03-07 19:03:00,
2014-03-07 14:14:00,32.9,4.1,-100.00,North,-999,0.0,0.0,29,0.00,,,-99.99,FreeWX-Wi 1.01,2014-03-07 19:14:00,
2014-03-07 14:24:00,33.1,4.3,-100.00,North,-999,0.0,0.0,29,0.00,,,-99.99,FreeWX-Wi 1.01,2014-03-07 19:24:00,
2014-03-07 14:37:00,33.3,4.5,-100.00,North,-999,0.0,0.0,29,0.00,,,-99.99,FreeWX-Wi 1.01,2014-03-07 19:37:00,
2014-03-07 14:47:00,33.4,4.6,-100.00,North,-999,0.0,0.0,29,0.00,,,-99.99,FreeWX-Wi 1.01,2014-03-07 19:47:00,
2014-03-07 14:57:00,33.3,4.5,-100.00,North,-999,0.0,0.0,29,0.00,,,-99.99,FreeWX-Wi 1.01,2014-03-07 19:57:00,
2014-03-07 15:07:00,33.1,4.3,-100.00,North,-999,0.0,0.0,29,0.00,,,-99.99,FreeWX-Wi 1.01,2014-03-07 20:07:00,
2014-03-07 15:17:00,33.1,4.3,-100.00,North,-999,0.0,0.0,29,0.00,,,-99.99,FreeWX-Wi 1.01,2014-03-07 20:17:00,
2014-03-07 15:27:00,33.1,4.3,-100.00,North,-999,0.0,0.0,29,0.00,,,-99.99,FreeWX-Wi 1.01,2014-03-07 20:27:00,
2014-03-07 15:37:00,33.3,4.5,-100.00,North,-999,0.0,0.0,29,0.00,,,-99.99,FreeWX-Wi 1.01,2014-03-07 20:37:00,
2014-03-07 15:47:00,33.3,4.5,-100.00,North,-999,0.0,0.0,29,0.00,,,-99.99,FreeWX-Wi 1.01,2014-03-07 20:47:00,
2014-03-07 15:57:00,33.1,4.3,-100.00,North,-999,0.0,0.0,29,0.00,,,-99.99,FreeWX-Wi 1.01,2014-03-07 20:57:00,
2014-03-07 16:07:00,32.7,4.1,-100.00,North,-999,0.0,0.0,29,0.00,,,-99.99,FreeWX-Wi 1.01,2014-03-07 21:07:00,
2014-03-07 16:17:00,32.5,3.9,-100.00,North,-999,0.0,0.0,29,0.00,,,-99.99,FreeWX-Wi 1.01,2014-03-07 21:17:00,
2014-03-07 16:27:00,32.5,3.9,-100.00,North,-999,0.0,0.0,29,0.00,,,-99.99,FreeWX-Wi 1.01,2014-03-07 21:27:00,
2014-03-07 16:37:00,32.5,3.9,-100.00,North,-999,0.0,0.0,29,0.00,,,-99.99,FreeWX-Wi 1.01,2014-03-07 21:37:00,
2014-03-07 16:47:00,32.2,3.6,-100.00,North,-999,0.0,0.0,29,0.00,,,-99.99,FreeWX-Wi 1.01,2014-03-07 21:47:00,
2014-03-07 16:57:00,32.0,3.4,-100.00,North,-999,0.0,0.0,29,0.00,,,-99.99,FreeWX-Wi 1.01,2014-03-07 21:57:00,
2014-03-07 17:07:00,31.6,3.7,-100.00,North,-999,0.0,0.0,30,0.00,,,-99.99,FreeWX-Wi 1.01,2014-03-07 22:07:00,
2014-03-07 17:17:00,31.3,3.6,-100.00,North,-999,0.0,0.0,30,0.00,,,-99.99,FreeWX-Wi 1.01,2014-03-07 22:17:00,
2014-03-07 17:27:00,30.9,3.2,-100.00,North,-999,0.0,0.0,30,0.00,,,-99.99,FreeWX-Wi 1.01,2014-03-07 22:27:00,
2014-03-07 17:37:00,30.7,3.0,-100.00,North,-999,0.0,0.0,30,0.00,,,-99.99,FreeWX-Wi 1.01,2014-03-07 22:37:00,
2014-03-07 17:47:00,30.6,2.8,-100.00,North,-999,0.0,0.0,30,0.00,,,-99.99,FreeWX-Wi 1.01,2014-03-07 22:47:00,
2014-03-07 17:57:00,30.2,3.9,-100.00,North,-999,0.0,0.0,32,0.00,,,-99.99,FreeWX-Wi 1.01,2014-03-07 22:57:00,
2014-03-07 18:07:00,29.7,4.1,-100.00,North,-999,0.0,0.0,33,0.00,,,-99.99,FreeWX-Wi 1.01,2014-03-07 23:07:00,
2014-03-07 18:17:00,29.7,4.1,-100.00,North,-999,0.0,0.0,33,0.00,,,-99.99,FreeWX-Wi 1.01,2014-03-07 23:17:00,
2014-03-07 18:27:00,29.5,3.9,-100.00,North,-999,0.0,0.0,33,0.00,,,-99.99,FreeWX-Wi 1.01,2014-03-07 23:27:00,
2014-03-07 18:37:00,29.1,3.6,-100.00,North,-999,0.0,0.0,33,0.00,,,-99.99,FreeWX-Wi 1.01,2014-03-07 23:37:00,
2014-03-07 18:47:00,28.8,3.4,-100.00,North,-999,0.0,0.0,33,0.00,,,-99.99,FreeWX-Wi 1.01,2014-03-07 23:47:00,
2014-03-07 18:57:00,28.8,3.4,-100.00,North,-999,0.0,0.0,33,0.00,,,-99.99,FreeWX-Wi 1.01,2014-03-07 23:57:00,
2014-03-07 19:07:00,28.8,3.4,-100.00,North,-999,0.0,0.0,33,0.00,,,-99.99,FreeWX-Wi 1.01,2014-03-08 00:07:00,
2014-03-07 19:17:00,28.9,3.6,-100.00,North,-999,0.0,0.0,33,0.00,,,-99.99,FreeWX-Wi 1.01,2014-03-08 00:17:00,
2014-03-07 19:27:00,28.8,3.4,-100.00,North,-999,0.0,0.0,33,0.00,,,-99.99,FreeWX-Wi 1.01,2014-03-08 00:27:00,
2014-03-07 19:37:00,28.6,3.2,-100.00,North,-999,0.0,0.0,33,0.00,,,-99.99,FreeWX-Wi 1.01,2014-03-08 00:37:00,
2014-03-07 19:47:00,28.4,3.0,-100.00,North,-999,0.0,0.0,33,0.00,,,-99.99,FreeWX-Wi 1.01,2014-03-08 00:47:00,
2014-03-07 19:57:00,27.9,2.5,-100.00,North,-999,0.0,0.0,33,0.00,,,-99.99,FreeWX-Wi 1.01,2014-03-08 00:57:00,
2014-03-07 20:07:00,27.7,2.3,-100.00,North,-999,0.0,0.0,33,0.00,,,-99.99,FreeWX-Wi 1.01,2014-03-08 01:07:00,
2014-03-07 20:17:00,27.3,2.1,-100.00,North,-999,0.0,0.0,33,0.00,,,-99.99,FreeWX-Wi 1.01,2014-03-08 01:17:00,
2014-03-07 20:27:00,27.1,1.9,-100.00,North,-999,0.0,0.0,33,0.00,,,-99.99,FreeWX-Wi 1.01,2014-03-08 01:27:00,
2014-03-07 20:37:00,27.5,3.6,-100.00,North,-999,0.0,0.0,35,0.00,,,-99.99,FreeWX-Wi 1.01,2014-03-08 01:37:00,
2014-03-07 20:47:00,27.7,3.6,-100.00,North,-999,0.0,0.0,35,0.00,,,-99.99,FreeWX-Wi 1.01,2014-03-08 01:47:00,
2014-03-07 20:57:00,27.9,3.7,-100.00,North,-999,0.0,0.0,35,0.00,,,-99.99,FreeWX-Wi 1.01,2014-03-08 01:57:00,
2014-03-07 21:07:00,27.7,3.6,-100.00,North,-999,0.0,0.0,35,0.00,,,-99.99,FreeWX-Wi 1.01,2014-03-08 02:07:00,
2014-03-07 21:17:00,27.9,3.7,-100.00,North,-999,0.0,0.0,35,0.00,,,-99.99,FreeWX-Wi 1.01,2014-03-08 02:17:00,
2014-03-07 21:27:00,27.7,3.6,-100.00,North,-999,0.0,0.0,35,0.00,,,-99.99,FreeWX-Wi 1.01,2014-03-08 02:27:00,
2014-03-07 21:37:00,27.7,3.6,-100.00,North,-999,0.0,0.0,35,0.00,,,-99.99,FreeWX-Wi 1.01,2014-03-08 02:37:00,
2014-03-07 21:47:00,27.9,3.7,-100.00,North,-999,0.0,0.0,35,0.00,,,-99.99,FreeWX-Wi 1.01,2014-03-08 02:47:00,
2014-03-07 21:57:00,27.7,3.6,-100.00,North,-999,0.0,0.0,35,0.00,,,-99.99,FreeWX-Wi 1.01,2014-03-08 02:57:00,
2014-03-07 22:07:00,27.7,3.6,-100.00,North,-999,0.0,0.0,35,0.00,,,-99.99,FreeWX-Wi 1.01,2014-03-08 03:07:00,
2014-03-07 22:17:00,27.7,5.4,-100.00,North,-999,0.0,0.0,38,0.00,,,-99.99,FreeWX-Wi 1.01,2014-03-08 03:17:00,
2014-03-07 22:27:00,27.5,5.2,-100.00,North,-999,0.0,0.0,38,0.00,,,-99.99,FreeWX-Wi 1.01,2014-03-08 03:27:00,
2014-03-07 22:37:00,27.3,5.2,-100.00,North,-999,0.0,0.0,38,0.00,,,-99.99,FreeWX-Wi 1.01,2014-03-08 03:37:00,
2014-03-07 22:47:00,27.0,4.8,-100.00,North,-999,0.0,0.0,38,0.00,,,-99.99,FreeWX-Wi 1.01,2014-03-08 03:47:00,
2014-03-07 22:57:00,26.8,4.6,-100.00,North,-999,0.0,0.0,38,0.00,,,-99.99,FreeWX-Wi 1.01,2014-03-08 03:57:00,
2014-03-07 23:07:00,26.4,4.3,-100.00,North,-999,0.0,0.0,38,0.00,,,-99.99,FreeWX-Wi 1.01,2014-03-08 04:07:00,
2014-03-07 23:17:00,26.1,3.9,-100.00,North,-999,0.0,0.0,38,0.00,,,-99.99,FreeWX-Wi 1.01,2014-03-08 04:17:00,
2014-03-07 23:27:00,25.9,3.7,-100.00,North,-999,0.0,0.0,38,0.00,,,-99.99,FreeWX-Wi 1.01,2014-03-08 04:27:00,
2014-03-07 23:37:00,25.5,3.6,-100.00,North,-999,0.0,0.0,38,0.00,,,-99.99,FreeWX-Wi 1.01,2014-03-08 04:37:00,
2014-03-07 23:47:00,25.2,3.2,-100.00,North,-999,0.0,0.0,38,0.00,,,-99.99,FreeWX-Wi 1.01,2014-03-08 04:47:00,